Regional Weather Roundup
Issued by NWS

Home | Current Version | Previous Version | Graphics & Text | Print | Product List | Glossary On
Versions: 1 2 3 4 5 6 7 8 9 10 11 12 13 14 15 16 17 18 19 20 21 22 23 24 25 26 27 28 29 30 31 32 33 34 35 36 37 38 39 40 41 42 43 44 45 46 47 48 49 50
000
ASUS45 KPSR 230410
RWRAZ

ARIZONA REGIONAL HOURLY WEATHER ROUNDUP
NATIONAL WEATHER SERVICE PHOENIX AZ
900 PM MST SAT NOV 22 2014

NOTE: FAIR INDICATES FEW OR NO CLOUDS BELOW 12,000 FEET WITH NO
SIGNIFICANT WEATHER AND/OR OBSTRUCTIONS TO VISIBILITY.

AZZ001>003-036-230500-
NORTHWEST ARIZONA

CITY           SKY/WX    TMP DP  RH WIND       PRES   REMARKS
BULLHEAD CITY  CLEAR     63  32  31 CALM      29.90R
KINGMAN        CLEAR     47  22  37 E5        29.96R
$$

AZZ004>008-015-016-018-230500-
NORTH CENTRAL ARIZONA

CITY           SKY/WX    TMP DP  RH WIND       PRES   REMARKS
GRAND CANYON   CLEAR     40  17  39 SW13      29.99S WCI  32
PRESCOTT       CLEAR     44  19  36 S6        30.03F
FLAGSTAFF      PTCLDY    34  16  47 NW3       30.03F
PAYSON         CLEAR     43  23  45 NE5       30.05S
$$

AZZ009>014-017-230500-
NORTHEAST ARIZONA

CITY           SKY/WX    TMP DP  RH WIND       PRES   REMARKS
WINSLOW        CLEAR     49  21  33 SW10G21   29.93F
SAINT JOHNS    CLEAR     47  15  27 SW16      29.96R
SHOW LOW       CLEAR     39  18  41 S14       30.04S WCI  31
$$

AZZ023-230500-
GREATER PHOENIX AREA

CITY           SKY/WX    TMP DP  RH WIND       PRES   REMARKS
PHOENIX        CLEAR     61  35  37 E5        29.93S
BUCKEYE          N/A     54  28  37 E7        29.94F
LUKE AFB       CLEAR     54  32  43 NE3       29.95R
DEER VALLEY    CLEAR     53  29  39 CALM      29.94F
SCOTTSDALE     CLEAR     57  31  37 CALM      29.95F
MESA-GATEWAY   PTCLDY    52  28  40 E8        29.97F
CHANDLER       CLEAR     55  34  44 E7        29.95F
$$

AZZ027-028-230500-
SOUTHWEST MARICOPA COUNTY AND PINAL COUNTY

CITY           SKY/WX    TMP DP  RH WIND       PRES   REMARKS
CASA GRANDE    CLEAR     54  27  35 CALM      29.97R
$$

AZZ503-504-507>509-230500-
SOUTHEAST ARIZONA

CITY           SKY/WX    TMP DP  RH WIND       PRES   REMARKS
TUCSON         CLEAR     55  25  31 S9        30.01S
DAVIS-MONTHAN  CLEAR     51  27  39 S7        29.99S
NOGALES        PTCLDY    46  29  51 E5        30.04F
SIERRA VISTA   PTCLDY    50  23  34 W14       30.05F
DOUGLAS        CLEAR     42  22  44 N8        30.04S
SAFFORD        CLEAR     55  21  26 NW17      29.95F
$$

AZZ020-021-025-026-031-230500-
SOUTHWEST ARIZONA

CITY           SKY/WX    TMP DP  RH WIND       PRES   REMARKS
YUMA           CLEAR     65  31  28 CALM      29.92R
$$

CAZ031-033-041-043-047-048-061-230500-
SOUTHERN CALIFORNIA

CITY           SKY/WX    TMP DP  RH WIND       PRES   REMARKS
DOWNTOWN L.A.  CLEAR     62  54  74 CALM      30.02R
L.A. AIRPORT   PTCLDY    63  54  72 CALM      30.02R
SAN DIEGO      MOCLDY    64  57  77 S7        30.05S
BURBANK        CLEAR     61  51  70 SE3       30.03R
ONTARIO        MOCLDY    61  54  77 SW7       30.03R
RIVERSIDE      CLEAR     60  51  72 CALM      30.03S
PALM SPRINGS   CLEAR     62  41  46 W5        29.91S
EL CENTRO NAS  PTCLDY    69  38  32 W16       29.88F
IMPERIAL       PTCLDY    66  41  40 W5        29.89R
BLYTHE         CLEAR     64  38  38 S10       29.91R
NEEDLES        CLEAR     65  29  25 E7        29.88S
$$

NVZ020-UTZ003-230500-
SOUTHERN NEVADA-UTAH

CITY           SKY/WX    TMP DP  RH WIND       PRES   REMARKS
LAS VEGAS      CLEAR     60  30  32 W8        29.85R
SALT LAKE CITY CLOUDY    37  35  92 N5        29.88R WCI  33
$$

NMZ009-TXZ055-230500-
NEW MEXICO-WEST TEXAS

CITY           SKY/WX    TMP DP  RH WIND       PRES   REMARKS
ALBUQUERQUE    MOCLDY    42  15  33 SE8       29.88F
EL PASO        CLEAR     61  18  18 W15       29.91F
$$


........................KEY........................
SKY/WX - SKY CONDITION/WEATHER
TMP    - TEMPERATURE IN FAHRENHEIT
DP     - DEW POINT IN FAHRENHEIT
RH     - RELATIVE HUMIDITY IN PERCENT
WIND   - DIRECTION AND SPEED IN MILES PER HOUR (MPH)
VRB    - VARIABLE WIND DIRECTION
PRES   - MEAN SEA LEVEL PRESSURE IN INCHES OF MERCURY
         F - FALLING PRESSURE   R - RISING PRESSURE
         S - STEADY PRESSURE
VSB    - VISIBILITY IN MILES
HX     - HEAT INDEX IN FAHRENHEIT
WCI    - WIND CHILL INDEX IN FAHRENHEIT
TC     - TEMPERATURE IN CELSIUS WHICH IS ALSO KNOWN AS
         TEMPERATURE IN CENTIGRADE
AFB    - AIR FORCE BASE
         LUKE AFB IS LUKE AIR FORCE BASE
         DAVIS-MONTHAN IS DAVIS-MONTHAN AIR FORCE BASE
NAS    - NAVAL AIR STATION
         EL CENTRO NAS IS EL CENTRO NAVAL AIR STATION
N/A    - NOT AVAILABLE



USA.gov is the U.S. government's official web portal to all federal, state and local government web resources and services.